SCP
1 1 1 1 0 0 0 0 0 0 0 -0 -0 -0 -0 -0 -0 -0 -0 -0 -0 -0 -0 -0 -0 -0 -0 -0 -0 -0 -0 -0 -0 -0 -0 -0 -0 -0 -0 -0 -0 0 -0
1 1 1 1 0 0 0 0 0 0 0 0 -0 -0 -0 -0 -0 -0 -0 -0 -0 -0 -0 -0 -0 -0 -0 -0 -0 -0 -0 -0 0 0 0 -0 -0 -0 -0 -0 -0 0 -0
1 1 1 1 1 0 0 0 0 0 0 0 0 0 -0 -0 -0 -0 -0 -0 -0 -0 -0 -0 -0 -0 -0 -0 -0 -0 0 0 0 0 -0 0 0 -0 -0 -0 -0 -0 -0
1 1 1 1 1 1 0 0 0 0 0 0 0 0 0 -0 -0 -0 -0 -0 -0 -0 -0 -0 -0 -0 -0 -0 -0 0 0 0 -0 -0 -0 0 0 -0 -0 -0 -0 -0 -0
1 0 1 1 1 1 1 0 0 0 0 0 0 0 0 0 -0 -0 0 -0 -0 -0 -0 -0 -0 -0 -0 -0 -0 0 0 -0 -0 -0 -0 0 0 -0 -0 -0 -0 -0 -0
1 1 2 1 1 1 1 0 0 0 0 0 0 0 0 0 0 0 0 0 -0 -0 -0 -0 -0 -0 -0 -0 0 -0 -0 0 0 0 -0 -0 -0 -0 -0 -0 -0 -0 -0
1 2 2 2 1 1 1 1 0 0 0 0 0 0 0 0 0 0 0 0 0 0 -0 -0 -0 -0 -0 -0 -0 -0 -0 0 -0 0 -0 0 0 -0 -0 -0 -0 -0 -0
1 1 1 2 1 1 1 1 1 1 0 0 0 0 0 0 0 0 0 0 0 0 0 0 0 0 0 0 0 -0 -0 0 -0 0 0 0 0 0 0 0 0 0 0
1 2 1 2 1 1 1 1 1 1 0 0 0 0 0 0 0 0 0 0 0 0 0 0 0 0 0 0 0 -0 -0 0 0 0 0 0 0 0 0 0 0 0 0
0 0 0 1 1 1 1 0 0 0 0 0 0 0 0 0 0 0 0 0 0 0 0 0 0 0 0 0 0 -0 -0 -0 -0 0 0 0 0 0 0 0 0 0 0
0 0 0 0 1 0 1 0 0 0 0 0 0 0 0 0 0 0 0 0 0 0 0 0 0 0 0 0 0 -0 -0 -0 -0 0 0 0 0 0 0 0 0 0 0
0 0 0 0 0 0 1 0 0 0 0 0 0 0 0 0 0 0 0 0 0 0 0 0 0 0 0 0 0 -0 -0 -0 0 0 0 0 0 0 0 0 0 0 0
0 0 0 0 0 0 1 0 0 0 0 0 0 0 0 0 0 0 0 0 0 0 0 0 0 0 -0 0 0 0 0 0 0 0 0 0 0 0 0 0 0 0 0
0 0 0 0 0 0 0 0 0 0 0 0 0 0 0 0 0 0 0 0 0 0 0 0 0 -0 0 0 0 0 0 0 0 0 0 0 0 0 0 -0 -0 0 0
0 0 0 0 0 -0 -0 0 0 0 0 0 0 0 0 0 0 0 0 0 0 0 -0 0 0 0 0 0 0 0 0 0 0 0 0 0 0 0 0 0 0 -0 -0
0 0 0 0 0 -0 0 0 0 0 0 0 0 0 0 0 0 0 0 0 0 0 0 0 0 0 0 0 0 0 0 0 0 0 0 0 0 0 0 0 0 0 0
0 0 0 -0 -0 0 -0 0 0 0 0 0 0 0 0 0 0 0 0 0 0 0 0 0 0 0 0 0 0 0 0 0 0 0 0 0 0 0 0 0 0 0 0
0 0 0 0 0 0 0 0 0 1 0 0 0 0 0 0 0 0 0 0 0 0 0 0 0 0 0 0 0 0 0 0 0 0 0 0 0 0 0 0 0 0 0
0 0 0 0 0 0 0 0 0 0 1 1 0 0 0 0 0 0 0 0 0 0 0 0 0 0 0 0 0 0 0 0 0 0 0 0 0 0 0 0 0 0 0
0 0 0 0 0 0 0 0 0 0 0 0 0 1 0 0 0 0 0 0 0 0 0 0 0 0 0 0 0 0 0 0 0 0 0 0 0 0 0 0 0 0 0
0 0 0 0 0 0 0 0 0 0 0 0 0 0 0 0 0 0 0 0 0 0 0 0 0 0 0 0 0 0 0 0 0 0 0 0 0 0 0 0 0 0 0
0 0 0 0 0 0 0 0 0 0 0 0 0 1 0 0 0 0 0 0 0 0 0 0 0 0 0 0 0 0 0 0 0 0 0 0 0 0 0 0 0 0 0
0 0 0 0 0 0 0 0 0 0 0 1 1 1 0 0 0 0 0 0 0 0 0 0 0 0 0 0 0 0 0 0 0 0 0 0 0 0 0 0 0 0 0
0 0 0 0 0 0 0 0 0 0 0 0 0 0 0 0 0 0 0 0 0 0 0 0 0 0 0 0 0 0 0 0 0 0 0 0 0 0 0 0 0 0 0
0 0 0 0 0 0 0 0 0 0 0 0 0 0 0 0 0 0 0 0 0 0 0 0 0 0 0 0 0 0 0 0 0 0 0 0 0 0 0 0 0 0 0
0 0 0 0 0 0 0 0 0 0 0 0 0 0 0 0 0 0 0 0 0 0 0 0 0 0 0 0 0 0 0 0 0 0 0 0 0 0 0 0 0 0 0
Wind_Speed_500mb
32 25 49 47 44 41 39 39 38 33 31 31 27 24 22 27 28 26 29 35 35 37 34 39 34 35 34 32 35 36 38 39 39 36 33 33 32 31 29 26 22 23 27
33 29 49 48 44 40 37 36 37 37 34 32 31 26 24 29 29 29 31 37 35 35 35 39 31 29 31 33 36 36 37 38 38 35 31 30 32 31 28 29 29 29 31
34 30 51 47 43 38 34 32 34 37 38 37 34 30 27 32 30 30 35 37 32 33 41 45 31 33 33 33 34 35 38 41 41 36 30 24 26 29 27 29 32 29 27
33 28 55 48 42 37 32 30 32 37 41 41 37 34 33 34 33 31 37 38 31 32 50 48 35 35 33 33 33 34 35 39 37 28 14 21 23 24 24 25 26 24 24
35 27 48 46 41 37 31 29 30 37 41 43 42 39 39 35 36 33 43 39 29 40 41 42 41 36 33 32 31 31 31 30 27 20 16 21 22 22 20 21 20 22 21
39 34 40 42 39 36 31 29 32 37 47 46 46 43 43 36 39 41 47 40 33 38 41 39 36 33 32 30 28 27 25 26 25 18 16 19 19 21 21 20 20 19 18
42 38 40 40 40 35 31 30 34 42 51 51 47 47 45 39 40 47 44 41 40 43 41 37 34 31 29 27 25 24 23 24 21 11 15 16 17 19 19 19 20 19 19
44 43 44 41 42 36 33 33 35 43 51 51 49 48 46 44 43 49 44 41 46 41 39 36 32 28 25 22 21 20 20 22 15 7 13 12 13 15 17 17 18 17 17
39 43 46 45 41 37 36 36 39 44 48 49 49 52 48 45 47 50 43 40 47 43 37 33 28 24 21 18 17 16 17 21 11 13 7 10 10 11 13 13 13 15 16
52 54 45 40 44 41 38 40 43 41 46 49 53 58 49 45 50 52 44 39 44 41 37 31 25 20 16 14 13 13 15 14 7 11 2 4 5 6 8 9 11 12 13
64 63 60 52 38 40 40 44 46 42 47 55 61 58 49 46 50 51 48 41 43 40 35 29 22 17 12 9 7 8 9 12 10 3 9 6 3 3 5 7 9 11 12
68 57 50 55 42 37 41 49 52 52 49 57 62 57 50 45 50 50 48 42 42 39 33 26 19 14 10 8 4 3 6 6 6 5 11 9 7 5 5 5 8 10 13
66 69 38 61 50 37 49 54 57 58 58 52 55 54 44 37 45 50 51 47 44 38 30 23 17 12 8 3 5 2 1 10 5 10 9 9 8 7 6 6 8 11 13
63 58 48 92 82 58 22 65 63 62 61 51 48 44 35 46 50 51 47 45 39 33 27 20 16 12 9 14 14 6 12 3 7 11 11 14 12 10 8 8 11 16 17
68 71 53 66 99 90 87 77 70 63 57 63 54 47 46 49 52 44 42 43 38 30 23 16 13 12 16 8 8 15 15 3 5 9 15 15 18 15 15 15 16 18 19
69 66 55 53 112 86 95 77 71 63 61 51 53 55 57 51 49 41 40 39 34 29 27 22 16 19 16 14 18 9 9 14 15 15 16 15 14 20 20 19 21 23 24
60 65 51 38 73 85 61 81 72 64 57 64 65 67 65 55 58 54 43 40 34 30 26 22 19 16 14 15 20 23 17 18 14 13 15 17 15 22 16 18 24 26 28
51 60 51 49 69 44 40 53 70 71 56 56 69 63 56 52 50 46 40 34 30 24 23 22 22 24 27 25 22 18 22 19 16 15 14 18 22 16 20 28 32 30 30
53 51 58 54 51 66 64 56 58 68 58 51 49 56 52 45 43 40 37 31 27 26 22 22 18 18 15 16 21 20 16 16 23 22 16 15 16 23 32 32 25 28 23
62 52 62 48 53 56 55 50 52 52 51 50 46 45 47 44 41 38 36 33 31 30 23 18 18 16 18 22 18 16 21 29 26 22 17 23 24 32 29 22 24 25 26
22 44 57 70 62 64 66 63 52 40 44 44 46 39 43 42 39 39 34 35 30 23 23 24 20 18 21 21 26 32 36 35 25 22 28 31 34 22 17 22 24 27 25
34 45 64 75 78 74 65 58 60 51 50 47 43 42 39 39 35 33 29 28 26 31 29 32 34 31 24 26 30 35 31 37 33 33 33 31 19 15 19 22 28 29 25
40 51 75 80 62 59 50 47 44 37 40 46 48 47 41 32 30 27 23 22 20 25 33 38 38 44 41 30 35 34 17 16 30 21 19 24 27 24 24 33 32 32 29
40 61 75 77 57 47 46 42 39 38 31 26 36 40 30 25 26 23 21 19 20 23 21 31 26 20 17 24 31 43 53 31 28 25 35 27 28 45 31 31 35 33 35
32 70 76 68 50 40 34 35 27 22 28 23 31 38 42 42 37 31 32 28 32 30 28 31 36 30 27 22 25 37 50 45 43 29 32 41 41 30 34 40 37 32 33
24 32 53 64 58 38 39 29 21 35 23 30 25 31 30 28 38 37 31 49 51 57 47 46 46 41 35 42 45 44 53 55 46 42 44 43 39 38 40 39 40 37 35
Wind_Direction_500mb
198 185 176 171 170 168 167 168 173 182 179 178 177 172 162 156 151 145 129 126 127 123 122 122 116 114 116 110 107 103 101 99 98 90 89 98 100 92 90 82 87 79 75
196 186 184 177 175 173 172 172 177 184 189 184 180 185 170 162 153 148 137 135 134 140 140 134 122 128 117 111 107 104 101 95 92 89 89 92 97 96 93 83 80 81 74
204 187 185 180 180 178 178 180 183 187 193 193 186 190 178 166 158 156 148 143 149 153 153 142 133 127 119 114 108 105 101 94 82 69 70 90 94 97 94 89 82 75 83
205 191 186 180 182 184 185 189 192 192 193 195 190 191 180 171 164 162 155 150 158 155 144 142 139 132 121 115 109 105 103 98 94 92 83 87 92 97 95 94 92 92 93
203 188 191 184 183 187 192 194 194 189 184 186 186 185 179 173 167 162 148 151 166 140 139 142 131 130 123 117 112 109 107 103 107 125 110 93 93 92 85 83 82 76 80
197 191 192 189 188 188 195 196 188 183 179 180 184 182 178 179 166 159 150 157 156 145 140 137 133 130 125 120 116 112 107 97 86 82 92 86 89 88 85 83 82 77 72
180 194 193 194 189 191 193 194 185 179 178 180 182 182 178 175 166 157 156 155 157 145 148 144 139 134 130 124 118 114 108 98 92 88 80 87 88 89 87 81 76 72 68
189 189 188 193 192 192 193 189 185 180 181 179 180 180 175 171 166 157 158 157 154 152 151 149 145 140 136 131 124 118 111 103 93 96 74 78 81 84 84 82 77 71 64
198 191 194 190 197 193 197 191 187 185 181 182 182 178 176 167 163 157 161 159 154 157 156 155 153 149 142 134 127 122 116 113 114 81 50 64 69 78 79 76 71 63 53
186 183 181 195 193 196 197 189 186 185 185 183 181 180 182 175 166 165 161 164 159 161 162 161 159 153 146 141 134 126 119 119 88 128 258 37 54 62 67 60 50 43 38
193 179 169 169 189 202 198 189 190 190 184 182 181 175 183 174 170 171 166 168 167 167 167 167 165 163 160 154 146 131 131 109 48 58 299 323 344 4 26 33 31 27 27
212 204 167 165 164 197 208 196 192 193 188 187 178 170 184 176 174 172 172 170 175 172 175 175 174 174 173 164 134 140 133 89 192 226 265 302 300 322 338 3 9 12 5
221 216 209 199 223 181 213 205 196 196 195 176 176 174 188 183 173 180 181 181 181 181 183 185 186 185 176 104 298 183 144 203 166 305 299 320 306 303 313 328 343 346 344
224 229 248 236 251 262 273 208 199 196 196 194 202 188 190 177 180 184 187 188 185 187 188 191 192 202 214 203 208 168 284 250 152 265 303 313 314 300 299 310 322 325 329
241 247 266 239 227 251 264 201 201 191 191 189 198 178 187 188 186 189 183 186 186 185 195 199 183 210 250 230 208 221 211 305 335 258 302 313 328 318 305 300 308 315 315
233 239 255 245 231 256 272 212 189 181 174 185 166 167 183 193 186 181 183 183 184 189 194 200 215 211 225 230 227 233 214 211 227 236 274 295 306 322 330 322 309 304 298
239 229 229 240 229 242 266 180 173 176 178 178 177 182 184 189 182 184 186 183 189 197 198 204 203 228 217 218 225 218 230 206 229 247 280 292 287 301 319 321 314 309 303
226 231 227 213 206 222 191 178 181 167 176 185 189 187 186 186 185 184 185 188 191 198 200 215 217 226 227 229 236 231 220 227 223 235 249 252 292 284 280 291 297 308 311
211 197 192 183 176 182 177 200 193 173 181 190 187 183 181 181 183 184 186 187 189 203 209 212 221 229 235 240 237 222 229 238 230 228 235 256 256 251 274 291 300 310 310
208 211 192 179 174 175 188 206 188 185 182 181 182 181 181 182 181 181 183 182 197 207 208 210 218 224 235 225 255 251 230 235 242 234 233 235 241 260 283 300 310 312 306
230 201 209 205 189 174 194 194 197 200 186 184 185 188 189 188 187 186 185 185 203 205 195 197 214 227 234 258 225 238 241 244 251 218 227 239 251 263 303 303 306 307 308
253 215 200 190 173 177 193 196 200 195 186 184 185 184 190 183 188 192 197 201 209 217 218 216 215 224 223 231 241 252 246 242 227 232 234 243 242 280 298 297 303 303 300
237 204 175 173 169 172 182 175 175 178 181 185 187 182 179 187 193 188 183 206 228 233 233 232 237 241 256 249 250 253 245 223 182 187 206 230 249 275 295 297 296 294 299
227 198 184 176 170 167 178 174 171 172 168 200 200 196 192 199 206 200 205 230 237 242 249 236 231 235 223 270 260 252 240 227 193 194 209 230 251 285 285 277 289 298 296
204 182 182 186 179 168 173 171 167 169 208 204 206 212 222 214 215 233 244 254 242 256 254 239 244 239 236 238 232 222 236 223 218 236 248 270 280 284 286 292 293 291 284
124 103 165 192 197 193 198 176 184 201 199 214 231 215 226 245 232 238 252 246 260 260 248 253 242 231 250 244 254 256 241 225 230 252 266 268 262 274 279 285 295 297 296
Wind_Speed_850mb
32 25 49 47 44 41 39 39 38 33 31 31 27 24 22 27 28 26 29 35 35 37 34 39 34 35 34 32 35 36 38 39 39 36 33 33 32 31 29 26 22 23 27
33 29 49 48 44 40 37 36 37 37 34 32 31 26 24 29 29 29 31 37 35 35 35 39 31 29 31 33 36 36 37 38 38 35 31 30 32 31 28 29 29 29 31
34 30 51 47 43 38 34 32 34 37 38 37 34 30 27 32 30 30 35 37 32 33 41 45 31 33 33 33 34 35 38 41 41 36 30 24 26 29 27 29 32 29 27
33 28 55 48 42 37 32 30 32 37 41 41 37 34 33 34 33 31 37 38 31 32 50 48 35 35 33 33 33 34 35 39 37 28 14 21 23 24 24 25 26 24 24
35 27 48 46 41 37 31 29 30 37 41 43 42 39 39 35 36 33 43 39 29 40 41 42 41 36 33 32 31 31 31 30 27 20 16 21 22 22 20 21 20 22 21
39 34 40 42 39 36 31 29 32 37 47 46 46 43 43 36 39 41 47 40 33 38 41 39 36 33 32 30 28 27 25 26 25 18 16 19 19 21 21 20 20 19 18
42 38 40 40 40 35 31 30 34 42 51 51 47 47 45 39 40 47 44 41 40 43 41 37 34 31 29 27 25 24 23 24 21 11 15 16 17 19 19 19 20 19 19
44 43 44 41 42 36 33 33 35 43 51 51 49 48 46 44 43 49 44 41 46 41 39 36 32 28 25 22 21 20 20 22 15 7 13 12 13 15 17 17 18 17 17
39 43 46 45 41 37 36 36 39 44 48 49 49 52 48 45 47 50 43 40 47 43 37 33 28 24 21 18 17 16 17 21 11 13 7 10 10 11 13 13 13 15 16
52 54 45 40 44 41 38 40 43 41 46 49 53 58 49 45 50 52 44 39 44 41 37 31 25 20 16 14 13 13 15 14 7 11 2 4 5 6 8 9 11 12 13
64 63 60 52 38 40 40 44 46 42 47 55 61 58 49 46 50 51 48 41 43 40 35 29 22 17 12 9 7 8 9 12 10 3 9 6 3 3 5 7 9 11 12
68 57 50 55 42 37 41 49 52 52 49 57 62 57 50 45 50 50 48 42 42 39 33 26 19 14 10 8 4 3 6 6 6 5 11 9 7 5 5 5 8 10 13
66 69 38 61 50 37 49 54 57 58 58 52 55 54 44 37 45 50 51 47 44 38 30 23 17 12 8 3 5 2 1 10 5 10 9 9 8 7 6 6 8 11 13
63 58 48 92 82 58 22 65 63 62 61 51 48 44 35 46 50 51 47 45 39 33 27 20 16 12 9 14 14 6 12 3 7 11 11 14 12 10 8 8 11 16 17
68 71 53 66 99 90 87 77 70 63 57 63 54 47 46 49 52 44 42 43 38 30 23 16 13 12 16 8 8 15 15 3 5 9 15 15 18 15 15 15 16 18 19
69 66 55 53 112 86 95 77 71 63 61 51 53 55 57 51 49 41 40 39 34 29 27 22 16 19 16 14 18 9 9 14 15 15 16 15 14 20 20 19 21 23 24
60 65 51 38 73 85 61 81 72 64 57 64 65 67 65 55 58 54 43 40 34 30 26 22 19 16 14 15 20 23 17 18 14 13 15 17 15 22 16 18 24 26 28
51 60 51 49 69 44 40 53 70 71 56 56 69 63 56 52 50 46 40 34 30 24 23 22 22 24 27 25 22 18 22 19 16 15 14 18 22 16 20 28 32 30 30
53 51 58 54 51 66 64 56 58 68 58 51 49 56 52 45 43 40 37 31 27 26 22 22 18 18 15 16 21 20 16 16 23 22 16 15 16 23 32 32 25 28 23
62 52 62 48 53 56 55 50 52 52 51 50 46 45 47 44 41 38 36 33 31 30 23 18 18 16 18 22 18 16 21 29 26 22 17 23 24 32 29 22 24 25 26
22 44 57 70 62 64 66 63 52 40 44 44 46 39 43 42 39 39 34 35 30 23 23 24 20 18 21 21 26 32 36 35 25 22 28 31 34 22 17 22 24 27 25
34 45 64 75 78 74 65 58 60 51 50 47 43 42 39 39 35 33 29 28 26 31 29 32 34 31 24 26 30 35 31 37 33 33 33 31 19 15 19 22 28 29 25
40 51 75 80 62 59 50 47 44 37 40 46 48 47 41 32 30 27 23 22 20 25 33 38 38 44 41 30 35 34 17 16 30 21 19 24 27 24 24 33 32 32 29
40 61 75 77 57 47 46 42 39 38 31 26 36 40 30 25 26 23 21 19 20 23 21 31 26 20 17 24 31 43 53 31 28 25 35 27 28 45 31 31 35 33 35
32 70 76 68 50 40 34 35 27 22 28 23 31 38 42 42 37 31 32 28 32 30 28 31 36 30 27 22 25 37 50 45 43 29 32 41 41 30 34 40 37 32 33
24 32 53 64 58 38 39 29 21 35 23 30 25 31 30 28 38 37 31 49 51 57 47 46 46 41 35 42 45 44 53 55 46 42 44 43 39 38 40 39 40 37 35
Wind_Direction_850mb
198 185 176 171 170 168 167 168 173 182 179 178 177 172 162 156 151 145 129 126 127 123 122 122 116 114 116 110 107 103 101 99 98 90 89 98 100 92 90 82 87 79 75
196 186 184 177 175 173 172 172 177 184 189 184 180 185 170 162 153 148 137 135 134 140 140 134 122 128 117 111 107 104 101 95 92 89 89 92 97 96 93 83 80 81 74
204 187 185 180 180 178 178 180 183 187 193 193 186 190 178 166 158 156 148 143 149 153 153 142 133 127 119 114 108 105 101 94 82 69 70 90 94 97 94 89 82 75 83
205 191 186 180 182 184 185 189 192 192 193 195 190 191 180 171 164 162 155 150 158 155 144 142 139 132 121 115 109 105 103 98 94 92 83 87 92 97 95 94 92 92 93
203 188 191 184 183 187 192 194 194 189 184 186 186 185 179 173 167 162 148 151 166 140 139 142 131 130 123 117 112 109 107 103 107 125 110 93 93 92 85 83 82 76 80
197 191 192 189 188 188 195 196 188 183 179 180 184 182 178 179 166 159 150 157 156 145 140 137 133 130 125 120 116 112 107 97 86 82 92 86 89 88 85 83 82 77 72
180 194 193 194 189 191 193 194 185 179 178 180 182 182 178 175 166 157 156 155 157 145 148 144 139 134 130 124 118 114 108 98 92 88 80 87 88 89 87 81 76 72 68
189 189 188 193 192 192 193 189 185 180 181 179 180 180 175 171 166 157 158 157 154 152 151 149 145 140 136 131 124 118 111 103 93 96 74 78 81 84 84 82 77 71 64
198 191 194 190 197 193 197 191 187 185 181 182 182 178 176 167 163 157 161 159 154 157 156 155 153 149 142 134 127 122 116 113 114 81 50 64 69 78 79 76 71 63 53
186 183 181 195 193 196 197 189 186 185 185 183 181 180 182 175 166 165 161 164 159 161 162 161 159 153 146 141 134 126 119 119 88 128 258 37 54 62 67 60 50 43 38
193 179 169 169 189 202 198 189 190 190 184 182 181 175 183 174 170 171 166 168 167 167 167 167 165 163 160 154 146 131 131 109 48 58 299 323 344 4 26 33 31 27 27
212 204 167 165 164 197 208 196 192 193 188 187 178 170 184 176 174 172 172 170 175 172 175 175 174 174 173 164 134 140 133 89 192 226 265 302 300 322 338 3 9 12 5
221 216 209 199 223 181 213 205 196 196 195 176 176 174 188 183 173 180 181 181 181 181 183 185 186 185 176 104 298 183 144 203 166 305 299 320 306 303 313 328 343 346 344
224 229 248 236 251 262 273 208 199 196 196 194 202 188 190 177 180 184 187 188 185 187 188 191 192 202 214 203 208 168 284 250 152 265 303 313 314 300 299 310 322 325 329
241 247 266 239 227 251 264 201 201 191 191 189 198 178 187 188 186 189 183 186 186 185 195 199 183 210 250 230 208 221 211 305 335 258 302 313 328 318 305 300 308 315 315
233 239 255 245 231 256 272 212 189 181 174 185 166 167 183 193 186 181 183 183 184 189 194 200 215 211 225 230 227 233 214 211 227 236 274 295 306 322 330 322 309 304 298
239 229 229 240 229 242 266 180 173 176 178 178 177 182 184 189 182 184 186 183 189 197 198 204 203 228 217 218 225 218 230 206 229 247 280 292 287 301 319 321 314 309 303
226 231 227 213 206 222 191 178 181 167 176 185 189 187 186 186 185 184 185 188 191 198 200 215 217 226 227 229 236 231 220 227 223 235 249 252 292 284 280 291 297 308 311
211 197 192 183 176 182 177 200 193 173 181 190 187 183 181 181 183 184 186 187 189 203 209 212 221 229 235 240 237 222 229 238 230 228 235 256 256 251 274 291 300 310 310
208 211 192 179 174 175 188 206 188 185 182 181 182 181 181 182 181 181 183 182 197 207 208 210 218 224 235 225 255 251 230 235 242 234 233 235 241 260 283 300 310 312 306
230 201 209 205 189 174 194 194 197 200 186 184 185 188 189 188 187 186 185 185 203 205 195 197 214 227 234 258 225 238 241 244 251 218 227 239 251 263 303 303 306 307 308
253 215 200 190 173 177 193 196 200 195 186 184 185 184 190 183 188 192 197 201 209 217 218 216 215 224 223 231 241 252 246 242 227 232 234 243 242 280 298 297 303 303 300
237 204 175 173 169 172 182 175 175 178 181 185 187 182 179 187 193 188 183 206 228 233 233 232 237 241 256 249 250 253 245 223 182 187 206 230 249 275 295 297 296 294 299
227 198 184 176 170 167 178 174 171 172 168 200 200 196 192 199 206 200 205 230 237 242 249 236 231 235 223 270 260 252 240 227 193 194 209 230 251 285 285 277 289 298 296
204 182 182 186 179 168 173 171 167 169 208 204 206 212 222 214 215 233 244 254 242 256 254 239 244 239 236 238 232 222 236 223 218 236 248 270 280 284 286 292 293 291 284
124 103 165 192 197 193 198 176 184 201 199 214 231 215 226 245 232 238 252 246 260 260 248 253 242 231 250 244 254 256 241 225 230 252 266 268 262 274 279 285 295 297 296